SL-8 R/B

Satellite information

Favourite Embed

Satellite Type and Status

ROCKET BODYIN ORBIT

Key statistics

Satellite SL-8 R/B at a glance.

Uptime

20454

Days in orbit

Revolutions

≈ 14.7

Per day

Orbit

LEO

Low Earth Orbit

Inclination

74.0

Latest

Satellite identification and parameters

Extended collection of information and parameters for SL-8 R/B.

Object identification

Identified? True

Debris? False

Object name: SL-8 R/B

International designator: 1969-091B

Object number (NORAD): 4139

Object ID (CCSDS): 4139

Country: COMMONWEALTH OF INDEPENDENT STATES (CIS)

Current information (Y/N): Y

RCS size: LARGE

Orbital parameters

Period: 98.213 minutes

Inclination: 74.0338 deg

SMA: 7051.378 km

Apoapsis: 676.384 km

Periapsis: 670.101 km

RAAN: 14.9352 deg

Eccentricy: 0.00044553

Argument of periapsis: 37.0538 deg

Mean anomaly: 323.0937 deg

Mean motion: 14.66195196 rev/day

Mean motion (dot): 0.00001243 rev/day2

B* drag term: 0.00023143823 1/REarth

Two-line elements (TLE)

Creation date: Oct. 21, 2025, 3:26 a.m.

Reference frame: TEME

Reference center: EARTH

Epoch: Oct. 20, 2025, 4:58 p.m. UTC

TLE line 0: 0 SL-8 R/B

TLE line 1: 1 04139U 69091B 25293.70721393 .00001243 00000-0 23144-3 0 9992

TLE line 2: 2 04139 74.0338 14.9352 0004455 37.0538 323.0937 14.66195196974614

Live tracking on map

Real-time ground track for satellite SL-8 R/B.

In-orbit conjunctions

A list of the most updated potential collisions computed for object SL-8 R/B.

Target Orbit TCA Probability of collision Miss distance Type
FENGYUN 1C DEB SSO 2025-08-09 03:42:31 0.0002391488 653.0 (m) DEBRIS
CZ-2C DEB SSO 2024-12-15 21:34:52 0.0001866271 599.0 (m) DEBRIS
CSTB 1 SSO 2024-09-19 09:25:49 0.0003010014 993.0 (m) PAYLOAD

Associated space launch

The first soviet navigation system called Tsiklon consisted of Zaliv satellites in low earth orbit.

SL-8 R/B was lifted into orbit during the mission ‘Kosmos-3M | Zaliv 4’, on board a Kosmos-3M space rocket.

The launch took place on Oct. 21, 1969, 12:49 p.m. from 132/1 (132L).

For more information about the launch, click the button.

Launch to space Kosmos-3M | Zaliv 4
Kosmos-3M | Zaliv 4

Agency: N/A

Status: Launch Successful

Launch date: Oct. 21, 1969, 12:49 p.m. UTC

Rocket: Kosmos-3M

Launch pad: 132/1 (132L)

Location: Plesetsk Cosmodrome, Russian Federation

...

Latest news about this satellite

There are no fresh news available about this satellite. Check back as we update our databases every day.


Newsletter sign-up

Weekly statistics, charts and insights to help you stay on top of the space industry.